Time,TemperatureF,DewpointF,PressureIn,WindDirection,WindDirectionDegrees,WindSpeedMPH,WindSpeedGustMPH,Humidity,HourlyPrecipIn,Conditions,Clouds,dailyrainin,SolarRadiationWatts/m^2,SoftwareType,DateUTC
2013-09-24 00:01:00,59.7,51.8,29.83,SSE,150,7.0,7.0,75,0.00,,,0.00,0,Wunderground v.1.15,2013-09-24 05:01:00,
2013-09-24 00:11:00,59.6,51.7,29.83,ESE,120,7.0,14.0,75,0.00,,,0.00,0,Wunderground v.1.15,2013-09-24 05:11:00,
2013-09-24 00:21:00,59.6,52.0,29.83,SE,132,7.0,13.0,76,0.00,,,0.00,0,Wunderground v.1.15,2013-09-24 05:21:00,
2013-09-24 00:31:00,59.5,51.9,29.82,SE,129,7.0,7.0,76,0.00,,,0.00,0,Wunderground v.1.15,2013-09-24 05:31:00,
2013-09-24 00:41:00,59.3,52.1,29.82,SE,136,8.0,8.0,77,0.00,,,0.00,0,Wunderground v.1.15,2013-09-24 05:41:00,
2013-09-24 00:51:00,59.0,51.8,29.82,ESE,105,8.0,8.0,77,0.00,,,0.00,0,Wunderground v.1.15,2013-09-24 05:51:00,
2013-09-24 01:01:00,58.8,52.0,29.82,ESE,116,8.0,13.0,78,0.00,,,0.00,0,Wunderground v.1.15,2013-09-24 06:01:00,
2013-09-24 01:11:00,58.8,52.0,29.82,ESE,118,7.0,13.0,78,0.00,,,0.00,0,Wunderground v.1.15,2013-09-24 06:11:00,
2013-09-24 01:21:00,58.7,52.2,29.81,ESE,123,8.0,14.0,79,0.00,,,0.00,0,Wunderground v.1.15,2013-09-24 06:21:00,
2013-09-24 01:31:00,58.5,52.0,29.81,SE,126,8.0,8.0,79,0.00,,,0.00,0,Wunderground v.1.15,2013-09-24 06:31:00,
2013-09-24 01:41:00,58.3,52.2,29.81,SE,130,7.0,7.0,80,0.00,,,0.00,0,Wunderground v.1.15,2013-09-24 06:41:00,
2013-09-24 01:51:00,58.0,51.9,29.81,ESE,114,7.0,7.0,80,0.00,,,0.00,0,Wunderground v.1.15,2013-09-24 06:51:00,
2013-09-24 02:01:00,57.7,51.9,29.81,SSE,147,8.0,8.0,81,0.00,,,0.00,0,Wunderground v.1.15,2013-09-24 07:01:00,
2013-09-24 02:11:00,57.5,52.0,29.81,SE,137,7.0,13.0,82,0.00,,,0.00,0,Wunderground v.1.15,2013-09-24 07:11:00,
2013-09-24 02:21:00,57.0,51.9,29.81,ESE,111,6.0,6.0,83,0.00,,,0.00,0,Wunderground v.1.15,2013-09-24 07:21:00,
2013-09-24 02:31:00,56.8,51.7,29.81,SE,134,6.0,6.0,83,0.00,,,0.00,0,Wunderground v.1.15,2013-09-24 07:31:00,
2013-09-24 02:41:00,56.6,51.8,29.81,SE,142,6.0,11.0,84,0.00,,,0.00,0,Wunderground v.1.15,2013-09-24 07:41:00,
2013-09-24 02:51:00,56.6,51.8,29.80,SE,131,7.0,12.0,84,0.00,,,0.00,0,Wunderground v.1.15,2013-09-24 07:51:00,
2013-09-24 03:01:00,56.7,51.9,29.80,ESE,108,7.0,7.0,84,0.00,,,0.00,0,Wunderground v.1.15,2013-09-24 08:01:00,
2013-09-24 03:11:00,56.7,51.9,29.80,SE,125,6.0,13.0,84,0.00,,,0.00,0,Wunderground v.1.15,2013-09-24 08:11:00,
2013-09-24 03:21:00,56.7,52.2,29.80,ENE,78,6.0,12.0,85,0.00,,,0.00,0,Wunderground v.1.15,2013-09-24 08:21:00,
2013-09-24 03:31:00,56.8,52.3,29.80,East,94,6.0,6.0,85,0.00,,,0.00,0,Wunderground v.1.15,2013-09-24 08:31:00,
2013-09-24 03:41:00,56.9,52.1,29.80,SE,135,6.0,12.0,84,0.00,,,0.00,0,Wunderground v.1.15,2013-09-24 08:41:00,
2013-09-24 03:51:00,57.1,52.3,29.80,East,92,7.0,7.0,84,0.00,,,0.00,0,Wunderground v.1.15,2013-09-24 08:51:00,
2013-09-24 04:01:00,57.3,52.5,29.80,ESE,110,7.0,7.0,84,0.00,,,0.00,0,Wunderground v.1.15,2013-09-24 09:01:00,
2013-09-24 04:11:00,57.5,52.4,29.80,ENE,68,6.0,11.0,83,0.00,,,0.00,0,Wunderground v.1.15,2013-09-24 09:11:00,
2013-09-24 04:21:00,57.6,52.5,29.80,SE,130,7.0,12.0,83,0.00,,,0.00,0,Wunderground v.1.15,2013-09-24 09:21:00,
2013-09-24 04:31:00,57.6,52.5,29.80,East,82,6.0,6.0,83,0.00,,,0.00,0,Wunderground v.1.15,2013-09-24 09:31:00,
2013-09-24 04:41:00,57.7,52.6,29.80,ESE,117,6.0,14.0,83,0.00,,,0.00,0,Wunderground v.1.15,2013-09-24 09:41:00,
2013-09-24 04:51:00,57.8,52.7,29.80,ESE,109,6.0,6.0,83,0.00,,,0.00,0,Wunderground v.1.15,2013-09-24 09:51:00,
2013-09-24 05:01:00,57.8,52.7,29.80,SE,128,6.0,13.0,83,0.00,,,0.00,0,Wunderground v.1.15,2013-09-24 10:01:00,
2013-09-24 05:11:00,57.9,52.8,29.80,East,98,6.0,11.0,83,0.00,,,0.00,0,Wunderground v.1.15,2013-09-24 10:11:00,
2013-09-24 05:21:00,57.9,52.8,29.80,East,98,5.0,5.0,83,0.00,,,0.00,0,Wunderground v.1.15,2013-09-24 10:21:00,
2013-09-24 05:31:00,58.0,52.5,29.80,East,84,7.0,12.0,82,0.00,,,0.00,0,Wunderground v.1.15,2013-09-24 10:31:00,
2013-09-24 05:41:00,58.0,52.5,29.80,SE,126,7.0,7.0,82,0.00,,,0.00,0,Wunderground v.1.15,2013-09-24 10:41:00,
2013-09-24 05:51:00,58.0,52.5,29.81,East,90,7.0,11.0,82,0.00,,,0.00,0,Wunderground v.1.15,2013-09-24 10:51:00,
2013-09-24 06:01:00,58.1,52.6,29.81,ESE,113,6.0,14.0,82,0.00,,,0.00,0,Wunderground v.1.15,2013-09-24 11:01:00,
2013-09-24 06:11:00,58.1,52.6,29.81,SE,127,6.0,13.0,82,0.00,,,0.00,0,Wunderground v.1.15,2013-09-24 11:11:00,
2013-09-24 06:21:00,58.0,52.5,29.81,SE,128,6.0,12.0,82,0.00,,,0.00,0,Wunderground v.1.15,2013-09-24 11:21:00,
2013-09-24 06:31:00,58.0,52.5,29.81,East,91,6.0,14.0,82,0.00,,,0.00,0,Wunderground v.1.15,2013-09-24 11:31:00,
2013-09-24 06:41:00,57.9,52.4,29.81,SE,131,5.0,5.0,82,0.00,,,0.00,0,Wunderground v.1.15,2013-09-24 11:41:00,
2013-09-24 06:51:00,57.9,52.4,29.81,ESE,105,5.0,11.0,82,0.00,,,0.00,0,Wunderground v.1.15,2013-09-24 11:51:00,
2013-09-24 07:01:00,57.8,52.3,29.81,ESE,115,6.0,11.0,82,0.00,,,0.00,0,Wunderground v.1.15,2013-09-24 12:01:00,
2013-09-24 07:11:00,57.8,52.3,29.82,SE,132,6.0,13.0,82,0.00,,,0.00,0,Wunderground v.1.15,2013-09-24 12:11:00,
2013-09-24 07:21:00,57.7,52.6,29.82,ESE,106,5.0,12.0,83,0.00,,,0.00,0,Wunderground v.1.15,2013-09-24 12:21:00,
2013-09-24 07:31:00,57.7,52.6,29.82,ESE,103,4.0,11.0,83,0.00,,,0.00,0,Wunderground v.1.15,2013-09-24 12:31:00,
2013-09-24 07:41:00,57.7,52.6,29.82,East,100,5.0,9.0,83,0.00,,,0.00,5,Wunderground v.1.15,2013-09-24 12:41:00,
2013-09-24 07:51:00,57.7,52.6,29.82,East,83,5.0,9.0,83,0.00,,,0.00,9,Wunderground v.1.15,2013-09-24 12:51:00,
2013-09-24 08:01:00,57.7,52.6,29.83,ESE,115,5.0,11.0,83,0.00,,,0.00,12,Wunderground v.1.15,2013-09-24 13:01:00,
2013-09-24 08:11:00,57.8,52.7,29.83,ESE,120,5.0,5.0,83,0.00,,,0.00,23,Wunderground v.1.15,2013-09-24 13:11:00,
2013-09-24 08:21:00,57.9,52.8,29.83,East,87,5.0,10.0,83,0.00,,,0.00,25,Wunderground v.1.15,2013-09-24 13:21:00,
2013-09-24 08:31:00,57.9,52.8,29.83,SE,132,6.0,6.0,83,0.00,,,0.00,19,Wunderground v.1.15,2013-09-24 13:31:00,
2013-09-24 08:41:00,58.0,52.9,29.83,SE,128,6.0,6.0,83,0.00,,,0.00,18,Wunderground v.1.15,2013-09-24 13:41:00,
2013-09-24 08:51:00,58.0,52.9,29.83,ESE,119,5.0,5.0,83,0.00,,,0.00,16,Wunderground v.1.15,2013-09-24 13:51:00,
2013-09-24 09:01:00,57.9,53.1,29.83,East,96,4.0,4.0,84,0.00,,,0.00,12,Wunderground v.1.15,2013-09-24 14:01:00,
2013-09-24 09:11:00,57.8,53.3,29.84,ESE,119,3.0,3.0,85,0.00,,,0.00,18,Wunderground v.1.15,2013-09-24 14:11:00,
2013-09-24 09:21:00,57.2,53.7,29.85,ESE,103,2.0,5.0,88,0.10,,,0.02,18,Wunderground v.1.15,2013-09-24 14:21:00,
2013-09-24 09:31:00,56.9,54.0,29.86,SE,130,1.0,5.0,90,0.06,,,0.02,18,Wunderground v.1.15,2013-09-24 14:31:00,
2013-09-24 09:41:00,56.8,54.2,29.86,SE,136,0.0,3.0,91,0.19,,,0.04,12,Wunderground v.1.15,2013-09-24 14:41:00,
2013-09-24 09:51:00,56.3,54.0,29.86,SE,136,0.0,2.0,92,0.22,,,0.08,25,Wunderground v.1.15,2013-09-24 14:51:00,
2013-09-24 10:01:00,56.4,54.4,29.87,ESE,123,1.0,1.0,93,0.19,,,0.11,28,Wunderground v.1.15,2013-09-24 15:01:00,
2013-09-24 10:11:00,56.5,54.8,29.87,ESE,102,1.0,1.0,94,0.09,,,0.13,51,Wunderground v.1.15,2013-09-24 15:11:00,
2013-09-24 10:21:00,56.7,55.0,29.87,East,85,0.0,3.0,94,0.07,,,0.14,70,Wunderground v.1.15,2013-09-24 15:21:00,
2013-09-24 10:31:00,56.9,55.2,29.87,ESE,107,1.0,3.0,94,0.11,,,0.16,49,Wunderground v.1.15,2013-09-24 15:31:00,
2013-09-24 10:41:00,56.9,55.2,29.87,ENE,63,3.0,6.0,94,0.09,,,0.17,58,Wunderground v.1.15,2013-09-24 15:41:00,
2013-09-24 10:51:00,57.0,55.3,29.87,ESE,111,2.0,2.0,94,0.06,,,0.18,69,Wunderground v.1.15,2013-09-24 15:51:00,
2013-09-24 11:01:00,57.1,55.4,29.87,East,98,3.0,3.0,94,0.04,,,0.19,56,Wunderground v.1.15,2013-09-24 16:01:00,
2013-09-24 11:11:00,57.2,55.5,29.87,ESE,105,1.0,7.0,94,0.13,,,0.21,81,Wunderground v.1.15,2013-09-24 16:11:00,
2013-09-24 11:21:00,57.6,55.9,29.87,ENE,74,1.0,3.0,94,0.18,,,0.23,81,Wunderground v.1.15,2013-09-24 16:21:00,
2013-09-24 11:31:00,57.8,56.1,29.86,NE,53,1.0,4.0,94,0.08,,,0.24,91,Wunderground v.1.15,2013-09-24 16:31:00,
2013-09-24 11:41:00,58.4,57.0,29.86,NE,53,1.0,4.0,95,0.06,,,0.25,125,Wunderground v.1.15,2013-09-24 16:41:00,
2013-09-24 11:51:00,59.0,57.6,29.86,NE,44,1.0,1.0,95,0.05,,,0.26,179,Wunderground v.1.15,2013-09-24 16:51:00,
2013-09-24 12:01:00,59.9,58.2,29.86,ENE,76,0.0,4.0,94,0.06,,,0.27,339,Wunderground v.1.15,2013-09-24 17:01:00,
2013-09-24 12:11:00,61.1,59.1,29.86,SE,129,0.0,2.0,93,0.06,,,0.28,260,Wunderground v.1.15,2013-09-24 17:11:00,
2013-09-24 12:21:00,61.8,59.5,29.86,SE,129,0.0,2.0,92,0.00,,,0.28,262,Wunderground v.1.15,2013-09-24 17:21:00,
2013-09-24 12:31:00,62.9,59.9,29.87,ESE,121,1.0,1.0,90,0.00,,,0.28,359,Wunderground v.1.15,2013-09-24 17:31:00,
2013-09-24 12:41:00,64.4,59.5,29.86,East,96,1.0,5.0,84,0.00,,,0.28,357,Wunderground v.1.15,2013-09-24 17:41:00,
2013-09-24 12:51:00,64.2,59.3,29.86,East,93,1.0,5.0,84,0.00,,,0.28,214,Wunderground v.1.15,2013-09-24 17:51:00,
2013-09-24 13:01:00,63.9,59.0,29.87,East,93,0.0,5.0,84,0.00,,,0.28,232,Wunderground v.1.15,2013-09-24 18:01:00,
2013-09-24 13:11:00,64.6,60.6,29.86,East,93,0.0,2.0,87,0.00,,,0.28,294,Wunderground v.1.15,2013-09-24 18:11:00,
2013-09-24 13:21:00,65.4,59.4,29.87,ENE,74,1.0,5.0,81,0.00,,,0.28,315,Wunderground v.1.15,2013-09-24 18:21:00,
2013-09-24 13:31:00,65.5,60.2,29.87,ENE,60,1.0,3.0,83,0.00,,,0.29,290,Wunderground v.1.15,2013-09-24 18:31:00,
2013-09-24 13:41:00,66.0,60.3,29.86,NE,56,2.0,2.0,82,0.00,,,0.29,287,Wunderground v.1.15,2013-09-24 18:41:00,
2013-09-24 13:51:00,66.0,58.6,29.87,NE,49,1.0,1.0,77,0.00,,,0.29,221,Wunderground v.1.15,2013-09-24 18:51:00,
2013-09-24 14:01:00,65.9,59.6,29.86,NNW,336,1.0,7.0,80,0.00,,,0.29,220,Wunderground v.1.15,2013-09-24 19:01:00,
2013-09-24 14:11:00,66.7,60.3,29.86,WNW,286,3.0,4.0,80,0.00,,,0.29,260,Wunderground v.1.15,2013-09-24 19:11:00,
2013-09-24 14:21:00,66.8,59.7,29.86,NNW,327,2.0,2.0,78,0.00,,,0.29,265,Wunderground v.1.15,2013-09-24 19:21:00,
2013-09-24 14:31:00,67.4,60.3,29.86,NNW,327,2.0,4.0,78,0.00,,,0.29,225,Wunderground v.1.15,2013-09-24 19:31:00,
2013-09-24 14:41:00,67.5,61.5,29.86,WNW,293,2.0,2.0,81,0.00,,,0.29,230,Wunderground v.1.15,2013-09-24 19:41:00,
2013-09-24 14:51:00,68.0,61.9,29.86,NNW,327,2.0,2.0,81,0.00,,,0.29,290,Wunderground v.1.15,2013-09-24 19:51:00,
2013-09-24 15:01:00,69.7,59.9,29.85,North,11,2.0,2.0,71,0.00,,,0.29,315,Wunderground v.1.15,2013-09-24 20:01:00,
2013-09-24 15:11:00,70.2,60.0,29.86,NNW,333,3.0,3.0,70,0.00,,,0.29,332,Wunderground v.1.15,2013-09-24 20:11:00,
2013-09-24 15:21:00,70.2,59.6,29.85,NNW,348,2.0,6.0,69,0.00,,,0.29,482,Wunderground v.1.15,2013-09-24 20:21:00,
2013-09-24 15:31:00,71.3,59.8,29.85,ESE,116,2.0,8.0,67,0.00,,,0.29,302,Wunderground v.1.15,2013-09-24 20:31:00,
2013-09-24 15:41:00,71.3,59.8,29.85,ENE,78,3.0,3.0,67,0.00,,,0.29,255,Wunderground v.1.15,2013-09-24 20:41:00,
2013-09-24 15:51:00,71.1,60.0,29.85,ENE,74,3.0,7.0,68,0.00,,,0.29,216,Wunderground v.1.15,2013-09-24 20:51:00,
2013-09-24 16:01:00,70.7,59.6,29.85,ENE,61,3.0,3.0,68,0.00,,,0.29,185,Wunderground v.1.15,2013-09-24 21:01:00,
2013-09-24 16:11:00,70.6,59.9,29.85,NE,39,2.0,7.0,69,0.00,,,0.29,244,Wunderground v.1.15,2013-09-24 21:11:00,
2013-09-24 16:21:00,71.1,60.4,29.86,NE,38,3.0,3.0,69,0.00,,,0.29,388,Wunderground v.1.15,2013-09-24 21:21:00,
2013-09-24 16:31:00,72.5,59.6,29.86,ENE,73,2.0,7.0,64,0.00,,,0.29,418,Wunderground v.1.15,2013-09-24 21:31:00,
2013-09-24 16:41:00,72.4,59.1,29.86,ENE,67,5.0,10.0,63,0.00,,,0.29,127,Wunderground v.1.15,2013-09-24 21:41:00,
2013-09-24 16:51:00,71.6,58.8,29.86,ENE,73,3.0,3.0,64,0.00,,,0.29,141,Wunderground v.1.15,2013-09-24 21:51:00,
2013-09-24 17:01:00,71.8,59.8,29.86,East,90,3.0,3.0,66,0.00,,,0.29,127,Wunderground v.1.15,2013-09-24 22:01:00,
2013-09-24 17:11:00,71.4,59.0,29.86,ENE,69,3.0,3.0,65,0.00,,,0.29,111,Wunderground v.1.15,2013-09-24 22:11:00,
2013-09-24 17:21:00,71.2,59.7,29.86,ENE,74,3.0,3.0,67,0.00,,,0.29,104,Wunderground v.1.15,2013-09-24 22:21:00,
2013-09-24 17:31:00,70.7,60.0,29.86,NE,42,2.0,2.0,69,0.00,,,0.29,56,Wunderground v.1.15,2013-09-24 22:31:00,
2013-09-24 17:41:00,69.5,59.3,29.87,NE,55,1.0,1.0,70,0.00,,,0.29,81,Wunderground v.1.15,2013-09-24 22:41:00,
2013-09-24 17:51:00,69.5,60.1,29.87,ENE,57,1.0,1.0,72,0.00,,,0.29,83,Wunderground v.1.15,2013-09-24 22:51:00,
2013-09-24 18:01:00,69.7,59.9,29.87,NE,42,1.0,1.0,71,0.00,,,0.29,81,Wunderground v.1.15,2013-09-24 23:01:00,
2013-09-24 18:11:00,70.0,60.6,29.87,NE,42,0.0,4.0,72,0.00,,,0.29,63,Wunderground v.1.15,2013-09-24 23:11:00,
2013-09-24 18:21:00,69.5,60.1,29.87,NE,45,1.0,1.0,72,0.00,,,0.29,28,Wunderground v.1.15,2013-09-24 23:21:00,
2013-09-24 18:31:00,68.7,59.7,29.87,NE,45,1.0,3.0,73,0.00,,,0.29,16,Wunderground v.1.15,2013-09-24 23:31:00,
2013-09-24 18:41:00,67.6,59.8,29.88,NE,45,0.0,3.0,76,0.00,,,0.29,14,Wunderground v.1.15,2013-09-24 23:41:00,
2013-09-24 18:51:00,66.8,59.7,29.87,NE,51,0.0,3.0,78,0.00,,,0.29,11,Wunderground v.1.15,2013-09-24 23:51:00,
2013-09-24 19:01:00,66.2,59.1,29.88,ENE,60,0.0,3.0,78,0.00,,,0.29,7,Wunderground v.1.15,2013-09-25 00:01:00,
2013-09-24 19:11:00,65.8,58.7,29.88,ENE,68,1.0,3.0,78,0.00,,,0.29,0,Wunderground v.1.15,2013-09-25 00:11:00,
2013-09-24 19:21:00,65.2,58.5,29.88,ENE,61,1.0,1.0,79,0.00,,,0.29,0,Wunderground v.1.15,2013-09-25 00:21:00,
2013-09-24 19:31:00,64.7,58.4,29.88,ENE,61,1.0,1.0,80,0.00,,,0.29,0,Wunderground v.1.15,2013-09-25 00:31:00,
2013-09-24 19:41:00,64.4,58.1,29.88,ENE,61,0.0,2.0,80,0.00,,,0.29,0,Wunderground v.1.15,2013-09-25 00:41:00,
2013-09-24 19:51:00,63.9,58.0,29.88,ENE,61,0.0,2.0,81,0.00,,,0.29,0,Wunderground v.1.15,2013-09-25 00:51:00,
2013-09-24 20:01:00,63.8,57.9,29.88,ENE,61,0.0,3.0,81,0.00,,,0.29,0,Wunderground v.1.15,2013-09-25 01:01:00,
2013-09-24 20:11:00,63.9,58.0,29.89,ENE,60,1.0,1.0,81,0.00,,,0.29,0,Wunderground v.1.15,2013-09-25 01:11:00,
2013-09-24 20:21:00,63.7,57.8,29.88,ENE,60,0.0,3.0,81,0.00,,,0.29,0,Wunderground v.1.15,2013-09-25 01:21:00,
2013-09-24 20:31:00,63.7,57.8,29.89,ENE,60,0.0,2.0,81,0.00,,,0.29,0,Wunderground v.1.15,2013-09-25 01:31:00,
2013-09-24 20:41:00,63.8,57.9,29.89,ENE,60,0.0,1.0,81,0.00,,,0.29,0,Wunderground v.1.15,2013-09-25 01:41:00,
2013-09-24 20:51:00,63.7,57.8,29.89,ENE,60,0.0,1.0,81,0.00,,,0.29,0,Wunderground v.1.15,2013-09-25 01:51:00,
2013-09-24 21:01:00,63.2,57.6,29.89,ENE,71,0.0,3.0,82,0.00,,,0.29,0,Wunderground v.1.15,2013-09-25 02:01:00,
2013-09-24 21:11:00,63.4,57.5,29.89,ENE,78,1.0,3.0,81,0.00,,,0.29,0,Wunderground v.1.15,2013-09-25 02:11:00,
2013-09-24 21:21:00,63.7,57.4,29.89,East,81,2.0,5.0,80,0.00,,,0.29,0,Wunderground v.1.15,2013-09-25 02:21:00,
2013-09-24 21:31:00,63.4,57.5,29.89,ENE,73,2.0,2.0,81,0.00,,,0.29,0,Wunderground v.1.15,2013-09-25 02:31:00,
2013-09-24 21:41:00,63.0,56.7,29.89,East,98,2.0,2.0,80,0.00,,,0.29,0,Wunderground v.1.15,2013-09-25 02:41:00,
2013-09-24 21:51:00,62.4,56.5,29.89,ENE,61,3.0,7.0,81,0.00,,,0.29,0,Wunderground v.1.15,2013-09-25 02:51:00,
2013-09-24 22:01:00,62.1,56.2,29.89,ENE,78,3.0,3.0,81,0.00,,,0.29,0,Wunderground v.1.15,2013-09-25 03:01:00,
2013-09-24 22:11:00,61.7,56.1,29.90,East,97,2.0,7.0,82,0.00,,,0.29,0,Wunderground v.1.15,2013-09-25 03:11:00,
2013-09-24 22:21:00,61.5,56.0,29.90,East,79,2.0,2.0,82,0.00,,,0.29,0,Wunderground v.1.15,2013-09-25 03:21:00,
2013-09-24 22:31:00,61.0,55.8,29.90,ESE,103,1.0,6.0,83,0.00,,,0.29,0,Wunderground v.1.15,2013-09-25 03:31:00,
2013-09-24 22:41:00,60.6,55.4,29.90,ENE,77,1.0,1.0,83,0.00,,,0.29,0,Wunderground v.1.15,2013-09-25 03:41:00,
2013-09-24 22:51:00,60.4,55.5,29.90,East,79,1.0,4.0,84,0.00,,,0.29,0,Wunderground v.1.15,2013-09-25 03:51:00,
2013-09-24 23:01:00,60.4,55.5,29.90,ESE,109,1.0,4.0,84,0.00,,,0.29,0,Wunderground v.1.15,2013-09-25 04:01:00,
2013-09-24 23:11:00,60.2,55.0,29.90,East,87,2.0,2.0,83,0.00,,,0.29,0,Wunderground v.1.15,2013-09-25 04:11:00,
2013-09-24 23:21:00,59.9,55.1,29.90,ESE,117,1.0,1.0,84,0.00,,,0.29,0,Wunderground v.1.15,2013-09-25 04:21:00,
2013-09-24 23:31:00,59.6,55.1,29.90,East,93,1.0,1.0,85,0.00,,,0.29,0,Wunderground v.1.15,2013-09-25 04:31:00,
2013-09-24 23:41:00,59.4,54.9,29.91,East,88,1.0,3.0,85,0.00,,,0.29,0,Wunderground v.1.15,2013-09-25 04:41:00,
2013-09-24 23:51:00,59.4,54.6,29.91,East,96,1.0,3.0,84,0.00,,,0.29,0,Wunderground v.1.15,2013-09-25 04:51:00,